sat.trackr.live / text

‹ back to catalog

SKYSAT-C12

NORAD 43797 · 2018-099AR

PAYLOAD ACTIVE UNKNOWN

§ Identity

Operator
Country
US
Launch date
2018-12-03
Launch site
AFWTR
Launch vehicle
Mass (kg)
RCS (m²)

Purposes: earth_obs

External: N2YO · Heavens-Above · Gunter

§ Orbital elements

Epoch: 2026-09-09T23:29:38.186880Z

Period
92.82 min
Inclination
96.9244°
Eccentricity
0.0003723
Mean motion
15.51433889 rev/d
Perigee alt
410.0 km
Apogee alt
415.1 km
Semi-major
6,790.7 km
B*
2.6743e-4
RAAN
272.9423°
Arg perigee
177.6784°
Mean anomaly
182.4487°
Rev number
43,499

§ Raw data

SKYSAT-C121 43797U 18099AR  26252.97891420  .00015691  00000+0  26743-3 0  99902 43797  96.9244 272.9423 0003723 177.6784 182.4487 15.51433889434990

JSON: /api/v1/satellites/43797 · /tle

For live sub-satellite position, see the globe view (requires WebGL).

§ Visibility from observer

Set your observer location to see the next 7 days of passes ≥ 10°. The values pass through the URL so the page stays shareable.

No JS? Fill the form by hand. The geolocation button needs JavaScript.